IT9FDP-13 Weather Reports


time (UTC)temp
F
wind
direction
speed
knots
gust
knots
rain 1hr
in
rain 24hr
in
rain mn
in
humidity
%
barometer
mb
20260507154021 68 168 15.6 21.7 0.00 0.00 0.00 66 1007.2
20260507153518 68 182 15.6 20.9 0.00 0.00 0.00 65 1007.2
20260507153024 68 178 15.6 23.5 0.00 0.00 0.00 65 1007.2
20260507152524 68 179 15.6 20.9 0.00 0.00 0.00 64 1007.3
20260507152027 69 174 14.8 21.7 0.00 0.00 0.00 64 1007.3
20260507151547 69 176 14.8 20.9 0.00 0.00 0.00 63 1007.2
20260507151016 68 181 14.8 20.9 0.00 0.00 0.00 63 1007.2
20260507150543 68 184 13.9 19.1 0.00 0.00 0.00 64 1007.2
20260507150020 69 175 13.0 16.5 0.00 0.00 0.00 63 1007.4
20260507145517 69 179 12.2 19.1 0.00 0.00 0.00 62 1007.4
20260507145023 69 175 15.6 21.7 0.00 0.00 0.00 62 1007.4
20260507144516 69 180 13.9 18.2 0.00 0.00 0.00 62 1007.3
20260507144024 69 182 13.0 17.4 0.00 0.00 0.00 61 1007.4
20260507143518 69 170 14.8 20.9 0.00 0.00 0.00 61 1007.3
20260507143016 69 176 14.8 23.5 0.00 0.00 0.00 61 1007.5
20260507142516 70 177 13.9 20.0 0.00 0.00 0.00 60 1007.5
20260507142026 70 180 13.9 19.1 0.00 0.00 0.00 60 1007.8
20260507140024 71 179 11.3 18.2 0.00 0.00 0.00 57 1008.1
20260507135524 70 179 13.0 20.9 0.00 0.00 0.00 57 1008.3
20260507135026 71 173 14.8 22.6 0.00 0.00 0.00 57 1008.4
20260507134516 71 183 13.0 17.4 0.00 0.00 0.00 56 1008.3
20260507134029 71 180 13.0 18.2 0.00 0.00 0.00 57 1008.5
20260507133519 70 177 13.0 20.0 0.00 0.00 0.00 58 1008.6
20260507133025 70 176 10.4 14.8 0.00 0.00 0.00 58 1008.6
20260507132542 71 177 11.3 17.4 0.00 0.00 0.00 56 1008.6
20260507132024 71 178 12.2 18.2 0.00 0.00 0.00 56 1008.5
20260507131519 72 174 11.3 15.6 0.00 0.00 0.00 55 1008.4
20260507131018 71 167 11.3 19.1 0.00 0.00 0.00 54 1008.4
20260507130526 71 178 12.2 21.7 0.00 0.00 0.00 54 1008.6
20260507130018 71 166 11.3 16.5 0.00 0.00 0.00 55 1008.6
20260507125546 72 176 12.2 16.5 0.00 0.00 0.00 53 1008.6
20260507125036 72 165 11.3 18.2 0.00 0.00 0.00 51 1008.7
20260507124520 72 176 13.9 21.7 0.00 0.00 0.00 51 1008.9
20260507124022 72 168 13.0 19.1 0.00 0.00 0.00 52 1009.0
20260507123524 72 178 11.3 22.6 0.00 0.00 0.00 53 1008.9
20260507123026 72 170 12.2 15.6 0.00 0.00 0.00 52 1009.0
20260507122522 72 176 10.4 16.5 0.00 0.00 0.00 51 1008.9
20260507122023 73 161 11.3 16.5 0.00 0.00 0.00 49 1009.0
20260507121535 73 168 12.2 17.4 0.00 0.00 0.00 48 1008.9
20260507121018 73 178 13.0 20.0 0.00 0.00 0.00 49 1008.7
20260507120522 73 180 10.4 14.8 0.00 0.00 0.00 48 1008.8
20260507120040 73 171 13.0 20.0 0.00 0.00 0.00 46 1008.6
20260507115517 74 173 13.9 18.2 0.00 0.00 0.00 45 1008.8
20260507115017 74 172 12.2 18.2 0.00 0.00 0.00 46 1009.0
20260507114521 74 160 11.3 18.2 0.00 0.00 0.00 43 1008.9
20260507114022 74 174 12.2 16.5 0.00 0.00 0.00 43 1008.8
20260507113517 73 185 13.0 19.1 0.00 0.00 0.00 44 1008.9
20260507113023 73 174 12.2 17.4 0.00 0.00 0.00 48 1009.1
20260507112525 74 171 9.6 17.4 0.00 0.00 0.00 47 1009.1
20260507112018 73 178 9.6 13.9 0.00 0.00 0.00 45 1009.2
20260507111549 72 180 11.3 17.4 0.00 0.00 0.00 49 1009.3
20260507111026 71 171 9.6 16.5 0.00 0.00 0.00 52 1009.2
20260507110525 72 176 11.3 17.4 0.00 0.00 0.00 50 1009.2
20260507110025 72 184 10.4 16.5 0.00 0.00 0.00 49 1009.1
20260507105543 72 181 11.3 17.4 0.00 0.00 0.00 49 1009.1
20260507105044 73 181 10.4 13.9 0.00 0.00 0.00 47 1009.2
20260507104527 74 179 11.3 17.4 0.00 0.00 0.00 44 1009.3
20260507103521 73 171 8.7 15.6 0.00 0.00 0.00 45 1009.2
20260507103046 75 177 10.4 17.4 0.00 0.00 0.00 42 1009.2
20260507102525 75 183 8.7 14.8 0.00 0.00 0.00 40 1009.2
20260507102025 75 182 7.8 14.8 0.00 0.00 0.00 40 1009.2
20260507101522 75 175 8.7 13.9 0.00 0.00 0.00 40 1009.3
20260507101020 75 178 8.7 15.6 0.00 0.00 0.00 40 1009.3
20260507100526 75 171 7.0 12.2 0.00 0.00 0.00 40 1009.4
20260507100025 74 181 8.7 12.2 0.00 0.00 0.00 41 1009.7
20260507095529 74 174 10.4 16.5 0.00 0.00 0.00 42 1009.6
20260507095023 74 170 10.4 15.6 0.00 0.00 0.00 42 1009.5
20260507094519 75 175 8.7 13.9 0.00 0.00 0.00 41 1009.5
20260507094026 74 176 9.6 13.9 0.00 0.00 0.00 43 1009.6
20260507093521 74 165 9.6 16.5 0.00 0.00 0.00 43 1009.7
20260507093017 74 167 8.7 13.9 0.00 0.00 0.00 43 1009.6
20260507092518 74 185 8.7 13.0 0.00 0.00 0.00 44 1009.6
20260507092024 75 175 7.8 11.3 0.00 0.00 0.00 42 1009.6
20260507091525 75 180 7.8 13.0 0.00 0.00 0.00 41 1009.6
20260507091026 75 185 7.8 14.8 0.00 0.00 0.00 42 1009.5
20260507090526 75 170 7.0 14.8 0.00 0.00 0.00 43 1009.6
20260507090044 74 179 7.8 12.2 0.00 0.00 0.00 43 1009.6
20260507085523 74 169 7.0 13.0 0.00 0.00 0.00 45 1009.7
20260507085028 73 180 7.0 10.4 0.00 0.00 0.00 45 1009.8
20260507084522 73 174 7.8 11.3 0.00 0.00 0.00 46 1009.9
20260507084019 73 163 8.7 13.9 0.00 0.00 0.00 46 1010.0
20260507083525 73 169 6.1 11.3 0.00 0.00 0.00 47 1009.9
20260507083025 72 176 7.8 12.2 0.00 0.00 0.00 49 1010.0
20260507082519 72 174 9.6 13.0 0.00 0.00 0.00 49 1010.0
20260507082021 71 173 7.0 13.0 0.00 0.00 0.00 52 1010.2
20260507081520 71 170 7.8 13.0 0.00 0.00 0.00 52 1010.3
20260507081046 72 166 7.0 13.9 0.00 0.00 0.00 52 1010.4
20260507080524 72 179 6.1 7.8 0.00 0.00 0.00 51 1010.5
20260507080023 72 171 6.1 11.3 0.00 0.00 0.00 51 1010.4
20260507075527 72 174 7.0 9.6 0.00 0.00 0.00 51 1010.5
20260507075021 72 174 7.0 12.2 0.00 0.00 0.00 51 1010.6
20260507074516 71 178 7.8 12.2 0.00 0.00 0.00 52 1010.8
20260507074040 71 176 7.0 13.9 0.00 0.00 0.00 52 1010.9
20260507073516 71 173 7.0 10.4 0.00 0.00 0.00 52 1011.0
20260507073017 71 178 7.0 10.4 0.00 0.00 0.00 52 1011.1
20260507072523 71 157 6.1 8.7 0.00 0.00 0.00 53 1011.2
20260507072022 70 170 5.2 10.4 0.00 0.00 0.00 54 1011.2
20260507071545 70 170 7.0 11.3 0.00 0.00 0.00 55 1011.2
20260507071018 70 174 6.1 11.3 0.00 0.00 0.00 56 1011.2
20260507070519 70 173 7.8 16.5 0.00 0.00 0.00 56 1011.2
20260507070022 70 173 7.0 11.3 0.00 0.00 0.00 57 1011.2
20260507065542 69 170 6.1 9.6 0.00 0.00 0.00 57 1011.4
20260507065025 69 167 7.0 11.3 0.00 0.00 0.00 58 1011.5
20260507064525 69 173 5.2 9.6 0.00 0.00 0.00 59 1011.6
20260507064019 68 177 6.1 12.2 0.00 0.00 0.00 61 1011.6
20260507063526 68 173 5.2 9.6 0.00 0.00 0.00 62 1011.6
20260507063023 67 175 6.1 11.3 0.00 0.00 0.00 64 1011.6
20260507062518 67 179 4.3 7.0 0.00 0.00 0.00 66 1011.6
20260507062023 66 175 4.3 8.7 0.00 0.00 0.00 68 1011.6
20260507061519 65 172 3.5 9.6 0.00 0.00 0.00 70 1011.7
20260507061021 64 179 3.5 7.0 0.00 0.00 0.00 73 1011.6
20260507060541 64 182 2.6 8.7 0.00 0.00 0.00 75 1011.6
20260507060021 64 187 0.0 1.7 0.00 0.00 0.00 76 1011.7
20260507055515 63 179 1.7 3.5 0.00 0.00 0.00 77 1011.7
20260507055019 63 181 1.7 3.5 0.00 0.00 0.00 77 1011.8
20260507054526 62 179 0.9 3.5 0.00 0.00 0.00 78 1011.8
20260507054022 62 178 0.9 3.5 0.00 0.00 0.00 78 1011.8
20260507053520 63 169 0.0 2.6 0.00 0.00 0.00 78 1011.8
20260507053017 63 141 0.9 2.6 0.00 0.00 0.00 78 1012.0
20260507052524 63 170 1.7 5.2 0.00 0.00 0.00 78 1012.0
20260507052026 63 166 1.7 5.2 0.00 0.00 0.00 78 1012.1
20260507051543 62 178 0.9 6.1 0.00 0.00 0.00 78 1012.1
20260507051022 63 163 2.6 7.8 0.00 0.00 0.00 78 1012.1
20260507050543 63 172 3.5 7.0 0.00 0.00 0.00 78 1012.1
20260507050016 63 173 3.5 8.7 0.00 0.00 0.00 78 1012.0
20260507045542 63 184 3.5 7.0 0.00 0.00 0.00 78 1011.9
20260507045024 63 178 3.5 7.0 0.00 0.00 0.00 77 1012.1
20260507044525 62 172 0.9 3.5 0.00 0.00 0.00 77 1012.2
20260507044042 62 187 0.9 2.6 0.00 0.00 0.00 78 1012.2
20260507043525 62 176 1.7 4.3 0.00 0.00 0.00 77 1012.1
20260507043043 62 173 0.9 3.5 0.00 0.00 0.00 77 1012.1
20260507042524 63 162 0.9 3.5 0.00 0.00 0.00 77 1012.3
20260507042020 63 168 2.6 5.2 0.00 0.00 0.00 77 1012.3
20260507041525 63 182 3.5 7.0 0.00 0.00 0.00 76 1012.2
20260507041017 63 178 2.6 7.0 0.00 0.00 0.00 76 1012.3
20260507040545 64 179 1.7 5.2 0.00 0.00 0.00 75 1012.3
20260507040025 64 173 3.5 6.1 0.00 0.00 0.00 75 1012.1
20260507035558 64 168 2.6 4.3 0.00 0.00 0.00 75 1012.0
20260507035040 63 175 2.6 6.1 0.00 0.00 0.00 76 1011.9
20260507034525 63 178 2.6 6.1 0.00 0.00 0.00 77 1011.9
20260507034020 62 179 3.5 7.0 0.00 0.00 0.00 78 1011.8
20260507033519 62 179 2.6 4.3 0.00 0.00 0.00 78 1011.8
20260507033025 63 174 0.9 3.5 0.00 0.00 0.00 78 1011.8
20260507032520 64 178 0.9 1.7 0.00 0.00 0.00 78 1011.8
20260507032019 63 180 0.9 2.6 0.00 0.00 0.00 78 1011.7
20260507031543 63 172 0.0 0.9 0.00 0.00 0.00 79 1011.8
20260507031017 63 158 0.0 0.9 0.00 0.00 0.00 79 1011.8
20260507030522 63 0.0 0.0 0.00 0.00 0.00 79 1011.9
20260507030019 63 171 0.0 1.7 0.00 0.00 0.00 80 1011.7
20260507025517 63 180 0.0 0.9 0.00 0.00 0.00 80 1011.8
20260507025025 63 178 0.9 2.6 0.00 0.00 0.00 80 1011.8
20260507024522 63 172 0.9 2.6 0.00 0.00 0.00 80 1011.6
20260507024024 63 173 0.9 1.7 0.00 0.00 0.00 80 1011.6
20260507023519 63 169 0.9 1.7 0.00 0.00 0.00 80 1011.7
20260507023016 63 176 1.7 2.6 0.00 0.00 0.00 80 1011.8
20260507022524 62 174 1.7 3.5 0.00 0.00 0.00 80 1011.7
20260507022016 63 175 0.0 1.7 0.00 0.00 0.00 80 1012.0
20260507021521 63 184 0.9 4.3 0.00 0.00 0.00 80 1012.1
20260507021022 63 178 0.0 1.7 0.00 0.00 0.00 80 1012.1
20260507020521 63 51 0.0 0.9 0.00 0.00 0.00 80 1012.1
20260507020023 63 166 0.0 1.7 0.00 0.00 0.00 80 1012.1
20260507015541 63 177 1.7 4.3 0.00 0.00 0.00 80 1012.0
20260507015026 63 185 1.7 4.3 0.00 0.00 0.00 80 1012.0
20260507014538 63 181 1.7 4.3 0.00 0.00 0.00 80 1011.9
20260507014016 63 175 2.6 5.2 0.00 0.00 0.00 80 1011.9
20260507013525 63 173 3.5 5.2 0.00 0.00 0.00 80 1012.2
20260507013017 63 180 1.7 3.5 0.00 0.00 0.00 80 1012.3
20260507012518 63 177 1.7 3.5 0.00 0.00 0.00 80 1012.4
20260507012022 63 178 2.6 4.3 0.00 0.00 0.00 80 1012.3
20260507011520 63 175 2.6 4.3 0.00 0.00 0.00 80 1012.3
20260507011024 63 174 3.5 5.2 0.00 0.00 0.00 80 1012.4
20260507010525 62 175 3.5 5.2 0.00 0.00 0.00 80 1012.5
20260507010021 62 177 4.3 7.8 0.00 0.00 0.00 80 1012.4
20260507005517 63 185 4.3 7.0 0.00 0.00 0.00 80 1012.5
20260507005023 63 176 3.5 7.0 0.00 0.00 0.00 80 1012.4
20260507004521 63 173 2.6 6.1 0.00 0.00 0.00 80 1012.5
20260507004017 63 173 2.6 4.3 0.00 0.00 0.00 80 1012.6
20260507003537 63 173 2.6 3.5 0.00 0.00 0.00 81 1012.7
20260507003025 63 178 1.7 2.6 0.00 0.00 0.00 81 1012.7
20260507002520 63 179 1.7 5.2 0.00 0.00 0.00 81 1012.8
20260507002039 63 175 0.9 2.6 0.00 0.00 0.00 81 1012.8
20260507001529 63 176 1.7 3.5 0.00 0.00 0.00 81 1012.8
20260507001020 63 170 1.7 5.2 0.00 0.00 0.00 81 1012.8
20260507000618 63 175 2.6 4.3 0.00 0.00 0.00 81 1012.8
20260507000024 63 178 3.5 7.0 0.00 0.00 0.00 81 1012.8
20260506235527 63 173 3.5 7.8 0.00 0.00 0.00 81 1012.7
20260506235028 63 177 3.5 6.1 0.00 0.00 0.00 81 1012.8
20260506234537 63 176 2.6 6.1 0.00 0.00 0.00 81 1012.9
20260506234025 63 175 3.5 7.0 0.00 0.00 0.00 81 1012.9
20260506233519 63 176 3.5 6.1 0.00 0.00 0.00 81 1012.9
20260506233036 63 171 4.3 6.1 0.00 0.00 0.00 81 1012.8
20260506232526 63 169 5.2 7.8 0.00 0.00 0.00 81 1012.7
20260506232025 63 183 5.2 8.7 0.00 0.00 0.00 81 1012.7
20260506231518 63 171 6.1 10.4 0.00 0.00 0.00 80 1012.6
20260506231026 63 186 6.1 9.6 0.00 0.00 0.00 80 1012.6
20260506230529 63 174 6.1 11.3 0.00 0.00 0.00 80 1012.5
20260506230028 63 174 7.0 13.9 0.00 0.00 0.00 80 1012.4
20260506225525 63 173 7.8 11.3 0.00 0.00 0.00 80 1012.4
20260506225041 63 171 7.0 13.0 0.00 0.00 0.00 80 1012.4
20260506224526 63 177 7.0 11.3 0.00 0.00 0.00 80 1012.4
20260506224022 63 181 7.0 13.0 0.00 0.00 0.00 80 1012.3
20260506223525 63 184 7.0 13.0 0.00 0.00 0.00 80 1012.3
20260506223025 63 177 5.2 9.6 0.00 0.00 0.00 80 1012.2
20260506222517 63 187 4.3 7.0 0.00 0.00 0.00 80 1012.2
20260506222021 63 173 5.2 8.7 0.00 0.00 0.00 80 1012.3
20260506221515 63 179 5.2 10.4 0.00 0.00 0.00 80 1012.2
20260506221026 63 170 6.1 10.4 0.00 0.00 0.00 80 1012.0
20260506220542 63 184 6.1 12.2 0.00 0.00 0.00 80 1011.9
20260506220026 63 171 5.2 8.7 0.00 0.00 0.00 81 1012.0
20260506215523 63 174 5.2 8.7 0.00 0.00 0.00 81 1012.0
20260506215042 63 175 5.2 10.4 0.00 0.00 0.00 81 1012.0
20260506214602 63 179 6.1 8.7 0.00 0.00 0.00 81 1011.9
20260506214024 63 172 5.2 10.4 0.00 0.00 0.00 81 1011.8
20260506213539 62 180 4.3 7.8 0.00 0.00 0.00 81 1011.7
20260506213026 62 177 4.3 7.8 0.00 0.00 0.00 82 1011.6
20260506212542 62 179 2.6 4.3 0.00 0.00 0.00 82 1011.6
20260506212047 62 178 3.5 5.2 0.00 0.00 0.00 82 1011.5
20260506211517 63 177 3.5 5.2 0.00 0.00 0.00 82 1011.6
20260506211024 63 163 2.6 4.3 0.00 0.00 0.00 82 1011.7
20260506210527 63 169 2.6 4.3 0.00 0.00 0.00 81 1011.7
20260506210024 63 168 2.6 4.3 0.00 0.00 0.00 82 1011.9
20260506205527 63 167 1.7 3.5 0.00 0.00 0.00 82 1012.0
20260506205017 63 175 2.6 5.2 0.00 0.00 0.00 81 1012.1
20260506204542 63 175 1.7 4.3 0.00 0.00 0.00 81 1012.1
20260506204027 63 174 2.6 6.1 0.00 0.00 0.00 81 1012.3
20260506203517 63 174 2.6 5.2 0.00 0.00 0.00 81 1012.6
20260506203025 63 181 2.6 4.3 0.00 0.00 0.00 81 1012.8
20260506202542 62 166 3.5 7.8 0.00 0.00 0.00 82 1012.8
20260506202042 62 175 3.5 7.0 0.00 0.00 0.00 81 1013.0
20260506201526 62 181 3.5 5.2 0.00 0.00 0.00 81 1013.1
20260506201023 62 179 3.5 6.1 0.00 0.00 0.00 81 1013.2
20260506200525 62 175 3.5 7.0 0.00 0.00 0.00 81 1013.3
20260506200026 62 177 4.3 7.0 0.00 0.00 0.00 81 1013.3
20260506195525 63 174 4.3 7.0 0.00 0.00 0.00 81 1013.3
20260506195026 63 173 4.3 8.7 0.00 0.00 0.00 81 1013.3
20260506194522 62 168 3.5 5.2 0.00 0.00 0.00 81 1013.2
20260506194025 62 177 3.5 6.1 0.00 0.00 0.00 81 1013.2
20260506193536 62 179 2.6 6.1 0.00 0.00 0.00 81 1013.3
20260506193024 63 175 5.2 9.6 0.00 0.00 0.00 81 1013.3
20260506192526 63 181 5.2 9.6 0.00 0.00 0.00 81 1013.2
20260506192047 62 177 5.2 8.7 0.00 0.00 0.00 81 1013.3
20260506191521 63 179 5.2 8.7 0.00 0.00 0.00 81 1013.3
20260506191021 63 179 5.2 7.8 0.00 0.00 0.00 81 1013.4
20260506190519 63 178 6.1 9.6 0.00 0.00 0.00 81 1013.4
20260506190104 63 173 5.2 7.8 0.00 0.00 0.00 81 1013.3
20260506185516 63 172 4.3 6.1 0.00 0.00 0.00 81 1013.2
20260506185025 63 171 4.3 6.1 0.00 0.00 0.00 80 1013.1
20260506184516 63 173 6.1 11.3 0.00 0.00 0.00 80 1013.1
20260506184016 63 182 5.2 8.7 0.00 0.00 0.00 80 1013.0
20260506183520 63 176 5.2 9.6 0.00 0.00 0.00 80 1012.9
20260506183022 63 167 6.1 10.4 0.00 0.00 0.00 80 1013.0
20260506182519 64 174 6.1 10.4 0.00 0.00 0.00 80 1012.9
20260506182028 64 185 6.1 10.4 0.00 0.00 0.00 80 1012.8
20260506181517 64 167 6.1 9.6 0.00 0.00 0.00 80 1012.7
20260506181026 64 174 4.3 6.1 0.00 0.00 0.00 80 1012.7
20260506180522 64 171 5.2 8.7 0.00 0.00 0.00 80 1012.5
20260506180027 64 170 5.2 9.6 0.00 0.00 0.00 80 1012.4
20260506175525 64 177 4.3 9.6 0.00 0.00 0.00 80 1012.3
20260506175016 64 181 5.2 7.8 0.00 0.00 0.00 80 1012.3
20260506174536 64 179 5.2 8.7 0.00 0.00 0.00 80 1012.2
20260506174022 64 175 5.2 7.8 0.00 0.00 0.00 80 1012.3
20260506173516 64 179 5.2 7.0 0.00 0.00 0.00 80 1012.3
20260506173023 64 171 7.0 12.2 0.00 0.00 0.00 80 1012.4
20260506172526 64 177 5.2 8.7 0.00 0.00 0.00 79 1012.5
20260506172022 64 181 5.2 9.6 0.00 0.00 0.00 79 1012.5
20260506171526 64 174 5.2 8.7 0.00 0.00 0.00 79 1012.5
20260506171020 65 178 6.1 10.4 0.00 0.00 0.00 79 1012.7
20260506170518 65 171 4.3 7.8 0.00 0.00 0.00 79 1012.7
20260506170023 65 179 5.2 8.7 0.00 0.00 0.00 79 1012.7
20260506165520 65 181 6.1 9.6 0.00 0.00 0.00 79 1012.6
20260506165019 65 168 5.2 9.6 0.00 0.00 0.00 79 1012.5
20260506164516 65 175 5.2 8.7 0.00 0.00 0.00 79 1012.6
20260506164017 65 167 5.2 7.8 0.00 0.00 0.00 79 1012.8
20260506163526 65 181 5.2 8.7 0.00 0.00 0.00 79 1012.8
20260506163016 65 179 6.1 9.6 0.00 0.00 0.00 79 1012.8
20260506162525 65 183 5.2 11.3 0.00 0.00 0.00 79 1012.8
20260506162017 65 177 4.3 7.8 0.00 0.00 0.00 79 1012.9
20260506161527 65 176 3.5 7.0 0.00 0.00 0.00 79 1013.0
20260506161017 65 176 4.3 7.0 0.00 0.00 0.00 79 1013.1
20260506160519 65 171 5.2 7.8 0.00 0.00 0.00 79 1013.1
20260506160020 65 176 5.2 10.4 0.00 0.00 0.00 79 1013.1
20260506155518 65 177 4.3 8.7 0.00 0.00 0.00 79 1013.1
20260506155016 65 176 5.2 8.7 0.00 0.00 0.00 79 1013.1
20260506154523 65 178 5.2 9.6 0.00 0.00 0.00 79 1013.1